310  
ASUS42 KRAH 280410  
RWRRAH  
NORTH CAROLINA WEATHER ROUNDUP  
NATIONAL WEATHER SERVICE RALEIGH NC  
1200 AM EDT WED SEP 28 2016  
 
NOTE: "FAIR" INDICATES FEW OR NO CLOUDS BELOW 12,000 FEET WITH NO  
SIGNIFICANT WEATHER AND/OR S TO VISIBILITY
.  
 
NCZ001-053-055-056-065-067-280500-  
WESTERN NORTH CAROLINA  
 
CITY SKY/WX TMP DP RH WIND PRES REMARKS
 
ASHEVILLE MOCLDY 65 62 90 CALM 29.98S  
JEFFERSON CLEAR 60 57 89 CALM 30.01S  
MORGANTON PTCLDY 62 62 100 CALM 29.97R FOG  
HICKORY MOCLDY 68 68 100 CALM 29.92S  
RUTHERFORDTON MOCLDY 66 66 100 CALM 29.94S  
MOUNT AIRY PTCLDY 67 65 94 CALM 29.94S FOG  
BOONE PTCLDY 59 59 99 W3 30.02S  

 
 
NCZ021-022-025-041-071-084-088-280500-  
CENTRAL NORTH CAROLINA  
 
CITY SKY/WX TMP DP RH WIND PRES REMARKS
 
CHARLOTTE CLOUDY 69 66 90 CALM 29.91S  
GREENSBORO MOCLDY 70 69 97 S9 29.91R  
WINSTON-SALEM PTCLDY 71 67 87 S5 29.92S  
RALEIGH-DURHAM CLOUDY 73 70 90 S3 29.92R  
FORT BRAGG DRIZZLE 72 70 94 CALM 29.91S  
FAYETTEVILLE MOCLDY 71 69 93 SE5 29.92R  
BURLINGTON MOCLDY 69 69 100 CALM 29.91S  
LAURINBURG MOCLDY 71 69 93 S5 29.92S  

 
 
NCZ011-015-027-028-043-044-047-080-103-280500-  
NORTHEASTERN NORTH CAROLINA  
 
CITY SKY/WX TMP DP RH WIND PRES REMARKS
 
ROCKY MT-WILSO PTCLDY 69 69 100 CALM 29.91F FOG  
GREENVILLE PTCLDY 70 70 100 CALM 29.94F  
WASHINGTON CLEAR 68 68 99 CALM 29.92F  
ELIZABETH CITY PTCLDY 69 67 93 CALM 29.92S  
MANTEO PTCLDY 73 71 95 E5 29.92R  
CAPE HATTERAS CLEAR 73 71 93 N5 29.89S  

 
 
NCZ078-087-090-091-093-098-101-280500-  
SOUTHEASTERN NORTH CAROLINA  
 
CITY SKY/WX TMP DP RH WIND PRES REMARKS
 
LUMBERTON PTCLDY 70 68 93 SE3 29.91S  
GOLDSBORO PTCLDY 70 70 100 S3 29.90S  
KINSTON PTCLDY 69 68 98 CALM 29.92F FOG  
KENANSVILLE CLOUDY 68 68 100 CALM 29.92S FOG  
NEW BERN PTCLDY 69 68 96 CALM 29.93R  
CHERRY POINT PTCLDY 70 68 93 NW3 29.92R  
BEAUFORT CLEAR 71 68 90 N5 29.90S  
JACKSONVILLE PTCLDY 70 68 93 CALM 29.91R  
WILMINGTON PTCLDY 71 69 93 CALM 29.92R  

 
 
 
 
CLICK HERE TO GO TO PREVIOUS BULLETINS.

The Nexlab NC Page Main Text Page